Kuchera_Ratio
0.0 0.0 0.0 0.0 0.0 0.0 0.0 0.0 0.0 0.0 0.0 0.0 0.0 0.0 0.0 0.0 0.0 0.0 0.0 0.0 0.0 0.0 0.0 0.0 0.0 0.0 0.0 0.0 0.0 0.0 0.0 0.0 0.0 0.0 0.0 0.0 0.0 0.0 0.0 0.0 0.0 0.0 0.0 0.0 0.0
0.0 0.0 0.0 0.0 0.0 0.0 0.0 0.0 0.0 0.0 0.0 0.0 0.0 0.0 0.0 0.0 0.0 0.0 0.0 0.0 0.0 0.0 0.0 0.0 0.0 0.0 0.0 0.0 0.0 0.0 0.0 0.0 0.0 0.0 0.0 0.0 0.0 0.0 0.0 0.0 0.0 0.0 0.0 0.0 0.0
0.0 0.0 0.0 0.0 0.0 0.0 0.0 0.0 0.0 0.0 0.0 0.0 0.0 0.0 0.0 0.0 0.0 0.0 0.0 0.0 0.0 0.0 0.0 0.0 0.0 0.0 0.0 0.0 0.0 0.0 0.0 0.0 0.0 0.0 0.0 0.0 0.0 0.0 0.0 0.0 0.0 0.0 0.0 0.0 0.0
0.0 0.0 0.0 0.0 0.0 0.0 0.0 0.0 0.0 0.0 0.0 0.0 0.0 0.0 0.0 0.0 0.0 0.0 0.0 0.0 0.0 0.0 0.0 0.0 0.0 0.0 0.0 0.0 0.0 0.0 0.0 0.0 0.0 0.0 0.0 0.0 0.0 0.0 0.0 0.0 0.0 0.0 0.0 0.0 0.0
0.0 0.0 0.0 0.0 0.0 0.0 0.0 0.0 0.0 0.0 0.0 0.0 0.0 0.0 0.0 0.0 0.0 0.0 0.0 0.0 0.0 0.0 0.0 0.0 0.0 0.0 0.0 0.0 0.0 0.0 0.0 0.0 0.0 0.0 0.0 0.0 0.0 0.0 0.1 0.3 0.0 0.6 1.3 0.0 0.0
0.0 0.0 0.0 0.0 0.0 0.0 0.0 0.0 0.0 0.0 0.0 0.0 0.0 0.0 0.0 0.0 0.0 0.0 0.0 0.0 0.0 0.0 0.0 0.0 0.0 0.0 0.0 0.0 0.0 0.0 0.0 0.0 0.0 0.0 0.0 0.0 0.0 0.0 1.6 0.0 1.8 1.6 2.4 0.0 0.0
0.0 0.0 0.0 0.0 0.0 0.0 0.0 0.0 0.0 0.0 0.0 0.0 0.0 0.0 0.0 0.0 0.0 0.0 0.0 0.0 0.0 0.0 0.0 0.0 0.0 0.0 0.0 0.0 0.0 0.0 0.0 0.0 0.0 0.0 0.0 0.0 0.5 2.4 2.1 2.4 2.5 2.4 3.0 2.0 1.1
0.0 0.0 0.0 0.0 0.0 0.0 0.0 0.0 0.0 0.0 0.0 0.0 0.0 0.0 0.0 0.0 0.0 0.0 0.0 0.0 0.0 0.0 0.0 0.0 0.0 0.0 0.0 0.0 0.0 0.0 0.0 1.1 0.0 0.0 0.0 0.0 3.6 2.7 2.8 2.6 2.6 2.8 4.6 3.4 2.5
0.0 0.0 0.0 0.0 0.0 0.0 0.0 0.0 0.0 0.0 0.0 0.0 0.0 0.0 0.0 0.0 0.0 0.0 0.0 0.0 0.0 0.0 0.0 0.0 0.0 0.0 0.0 0.0 0.0 0.0 2.7 0.0 0.0 0.0 0.0 0.0 2.5 3.6 3.3 2.9 3.0 2.7 3.8 4.0 3.0
0.0 0.0 0.0 0.0 0.0 0.0 0.0 0.0 0.0 0.0 0.0 0.0 0.0 0.0 0.0 0.0 0.0 0.0 0.0 0.0 0.0 0.0 0.0 0.0 0.0 0.0 0.0 0.0 7.1 1.4 0.4 0.0 2.5 2.5 2.1 0.7 3.7 2.6 3.7 3.9 4.0 3.5 4.0 4.4 4.1
0.0 0.0 0.0 0.0 0.0 0.0 0.0 0.0 0.0 0.0 0.0 0.0 0.0 0.0 0.0 0.0 0.0 0.0 0.0 0.0 0.0 0.0 0.0 0.0 0.0 0.2 0.0 0.0 0.0 0.0 0.0 1.9 5.3 2.0 3.1 7.3 5.8 4.6 4.8 4.8 4.9 4.7 4.7 5.5 5.5
0.0 0.0 0.0 0.0 0.0 0.0 0.0 0.0 0.0 0.0 0.0 0.0 0.0 0.0 0.0 0.0 0.0 0.0 0.0 0.0 0.0 0.0 0.0 0.0 0.5 0.0 0.0 0.0 0.0 0.0 0.0 5.6 6.8 3.1 7.5 7.6 7.4 7.3 6.8 6.7 6.8 6.2 6.3 6.7 6.6
0.0 0.0 0.0 0.0 0.0 0.0 0.0 0.0 0.0 0.0 0.0 0.0 0.0 0.0 0.0 0.0 0.0 0.0 0.0 0.0 0.0 0.0 0.0 0.8 0.0 0.0 0.0 0.0 0.0 0.0 0.0 4.9 5.5 7.8 9.4 8.5 11.5 10.4 9.3 8.6 8.0 8.0 8.2 8.5 8.3
0.0 0.0 0.0 0.0 0.0 0.0 0.0 0.0 0.0 0.0 0.0 0.0 0.0 0.0 0.0 0.0 0.0 0.0 0.0 0.0 0.0 0.0 0.0 0.0 0.0 0.0 0.0 0.0 0.0 0.7 0.0 0.0 1.8 6.3 10.4 10.2 13.3 12.3 9.6 9.8 10.3 9.2 8.7 9.0 9.3
0.0 0.0 0.0 0.0 0.0 0.0 0.0 0.0 0.0 0.0 13.8 0.0 0.0 0.0 0.0 0.0 0.0 0.0 0.0 0.0 0.0 0.0 0.0 0.0 0.0 0.0 0.0 0.0 0.0 0.0 0.0 0.0 0.0 5.8 9.0 13.0 12.5 11.5 11.0 10.0 9.4 9.4 9.7 10.3 10.6
0.0 0.0 0.0 0.0 0.0 0.0 0.0 0.0 0.0 4.8 14.4 0.0 0.0 0.0 0.0 0.0 0.0 0.0 0.0 0.0 0.0 0.0 0.0 0.0 0.0 0.0 0.0 0.0 0.0 0.0 0.0 0.0 4.1 4.7 12.6 8.0 10.5 7.2 5.0 3.4 7.4 9.0 10.5 11.3 11.7
0.0 0.0 0.0 0.0 0.0 0.0 0.0 0.0 5.2 13.8 0.0 0.0 0.0 0.0 0.0 0.0 0.0 0.0 0.0 0.0 0.2 3.5 3.6 0.0 0.0 0.0 0.0 0.0 0.0 0.0 1.0 13.1 14.3 13.7 13.9 7.1 11.3 6.9 9.3 8.3 9.5 11.8 12.3 12.2 12.2
0.0 0.0 0.0 0.0 0.0 0.0 0.0 0.0 12.1 2.3 1.1 0.0 0.0 0.0 0.0 0.0 0.0 0.0 0.0 0.0 0.0 0.0 3.3 7.2 10.4 0.0 0.0 0.0 0.0 0.0 0.0 8.1 14.6 15.0 13.6 8.1 12.7 12.1 11.5 10.9 11.4 11.9 11.4 11.7 12.1
0.0 0.0 0.0 0.0 0.0 0.0 0.0 9.5 7.1 4.2 0.2 1.3 0.0 0.4 1.8 0.0 0.0 0.0 0.0 0.0 0.0 0.0 0.9 6.7 3.3 0.0 0.0 0.0 0.0 0.1 2.8 0.0 6.9 10.5 11.3 13.4 13.7 12.5 11.9 12.2 11.9 12.2 12.2 12.1 12.7
0.0 0.0 0.0 0.0 0.0 0.0 0.0 3.9 1.9 0.0 0.0 0.0 5.0 0.0 5.3 0.0 0.2 0.0 1.0 0.0 0.0 0.0 0.0 0.0 8.1 0.0 0.0 0.0 0.0 0.0 0.0 4.0 5.5 14.2 15.0 13.8 13.7 12.3 10.3 9.9 12.1 12.1 12.7 13.3 13.5
0.0 0.0 0.0 0.0 0.0 0.0 4.0 1.9 1.2 0.0 0.0 0.0 2.9 4.6 2.1 0.5 0.0 1.1 0.8 1.5 0.0 0.0 0.0 0.0 2.5 7.3 0.0 5.7 3.7 1.3 2.1 0.8 0.0 4.6 13.3 13.8 13.1 12.1 10.6 11.1 12.6 13.5 13.3 14.0 15.0
0.0 2.9 0.0 0.0 0.0 0.0 2.4 0.0 0.0 0.0 0.0 0.0 0.0 2.5 4.5 4.4 1.8 1.5 3.2 4.1 1.1 0.0 1.0 0.0 4.7 11.1 10.0 6.0 3.6 5.9 4.3 2.5 6.8 12.9 12.1 9.5 13.8 12.0 12.3 13.2 13.3 13.1 13.9 14.9 15.7
0.0 0.0 0.0 0.0 7.9 5.0 2.8 3.1 1.2 1.7 3.1 2.7 2.8 0.5 2.4 7.0 9.2 7.2 4.8 3.5 1.2 2.7 2.8 1.5 8.0 13.9 13.0 10.6 8.4 11.2 8.9 6.9 7.7 6.3 8.4 12.3 14.5 13.1 12.9 12.9 13.7 14.3 14.8 15.1 15.8
0.0 3.2 0.0 0.0 0.0 4.8 6.0 5.7 6.1 3.9 3.0 2.3 5.3 4.4 7.0 8.6 8.8 11.2 11.9 6.0 3.3 2.2 0.0 0.7 7.8 8.8 11.3 11.1 10.9 12.6 11.7 11.2 9.5 12.1 10.3 10.2 12.1 12.5 13.4 13.4 14.1 15.0 16.7 15.9 16.5
0.2 5.4 6.8 6.3 5.0 6.3 3.6 6.7 8.8 8.4 4.1 3.5 8.0 7.6 7.7 12.2 12.2 12.3 12.5 9.0 4.9 2.3 5.5 6.5 12.6 13.0 13.0 12.9 12.7 12.2 12.3 12.7 13.8 13.4 13.5 11.6 12.3 12.6 13.7 14.8 16.7 17.5 17.1 17.4 18.0
5.2 6.9 7.8 8.8 7.6 9.3 7.9 8.4 8.7 8.3 7.9 10.1 10.2 7.0 8.9 9.6 8.7 12.6 12.6 12.9 12.9 7.2 11.5 11.5 15.1 14.4 15.0 14.3 14.7 14.3 14.3 14.5 14.7 15.2 15.2 14.4 13.8 14.4 16.2 17.2 17.8 18.3 18.8 19.4 20.0
9.0 10.0 10.3 10.3 10.6 11.0 11.7 11.3 9.3 8.3 7.7 9.5 9.7 11.4 12.0 9.2 6.7 7.5 9.4 10.7 11.3 12.5 13.7 13.2 15.3 16.2 17.5 17.1 16.3 17.6 16.5 15.7 15.6 15.5 15.5 15.6 15.0 15.1 15.8 17.9 18.9 19.6 20.1 20.6 20.5